Meath Environmental Platform

Observations for Trim Market St

Time AQI Temp °C Hum % Pres Pa CO μg/m³ H₂S μg/m³ NO μg/m³ NO₂ μg/m³ O₃ μg/m³ SO₂ μg/m³ PM1 μg/m³ PM2.5 μg/m³ PM10 μg/m³
Saturday 22 August 2026
01:19 2 11.2 74 53,064 0.45 0 4.53 10.21 37.42 0 1.43 2.84 5.13
01:11 2 11.2 75 52,010 0.46 0 4.45 12.56 35.77 0 1.43 2.83 5.14
01:10 2 11.2 75 51,819 0.48 0 4.77 12.56 34.73 0 1.43 2.83 5.14
01:05 2 11.2 75 50,737 0.45 0 5.21 17.18 28.42 0 0.71 2.82 5.14
01:04 2 11.2 75 50,560 0.46 0 5.21 30.43 12.55 0 1.43 3.3 5.74
01:03 2 11.2 75 50,383 0.47 0 5.16 22.38 22.24 0 1.43 2.34 4.54
01:02 2 11.2 75 50,223 0.46 0 4.4 14.5 39.56 0 1.43 2.82 6.93
01:01 2 11.2 75 50,105 0.44 0 4.82 13.91 35.83 0 2.14 3.3 5.74
01:00 2 11.1 75 50,021 0.43 0 5.46 11.78 36.38 0 2.14 3.78 6.93
00:59 2 11.2 75 49,923 0.43 0 14.53 13.15 47.73 0 0.71 2.83 5.14
00:57 2 11.1 75 49,849 0.49 0 116.65 26.79 17.05 0 2.14 2.83 5.14
00:54 2 11.2 75 49,773 0.42 0 120.61 12.7 42.51 0 1.43 2.83 5.14
00:53 2 11.1 75 49,744 0.42 0 4.32 12.65 37.16 0 1.43 1.87 3.94
00:50 2 11.2 75 49,741 0.42 0 4.4 16.88 30.19 0 1.43 2.83 5.14
00:48 2 11.2 75 49,845 0.4 0 3.98 11.45 45.13 0 1.43 1.88 3.93
00:43 2 11.2 74 50,156 0.43 0 4.81 11.26 39.38 0 0.71 2.36 5.73
00:39 2 11.2 74 50,476 0.42 0 4.38 13.15 36.5 0 1.43 1.89 3.92
00:35 2 11.2 74 50,727 0.39 0 3.38 10.78 40.65 0 2.14 3.34 5.73
00:34 2 11.3 74 50,809 0.39 0 3.83 11.39 39.55 0 1.43 2.86 6.33
00:33 2 11.2 74 50,911 0.39 0 3.64 11.46 39.62 0 2.14 3.34 5.72